Location: Hermaringen
(48.5952°N, 10.2585°E)
Time: 05:19:35
(UTC+00:00)

Transit 2A - Pass Details

Date: 19 February 2026
Orbit: 590 x 954 km, 66.7° (Epoch: 14 March)

Event Time Altitude Azimuth Distance (km) Brightness Sun altitude
Rises 21:18:32 0° 317° (NW) 3,556 10.2 -43.2°
Reaches altitude 10° 21:21:32 10° 306° (NW) 2,563 9.3 -43.6°
Enters shadow 21:23:07 16° 294° (WNW) 2,110 8.7 -43.8°
